Waarnemingen

Advertentie
Mijn weer
Caceres, Spanje (8261): temperatuur & dauwpunt: 21.05.2020 05:00:00 - 27.05.2020 05:00:00 (CEST)Caceres, Spanje (8261): windsnelheid: 21.05.2020 05:00:00 - 27.05.2020 05:00:00 (CEST)Caceres, Spanje (8261): windrichting: 21.05.2020 05:00:00 - 27.05.2020 05:00:00 (CEST)Caceres, Spanje (8261): luchtdruk: 21.05.2020 05:00:00 - 27.05.2020 05:00:00 (CEST)Caceres, Spanje (8261): zicht: 21.05.2020 05:00:00 - 27.05.2020 05:00:00 (CEST)Caceres, Spanje (8261): neerslag: 21.05.2020 05:00:00 - 27.05.2020 05:00:00 (CEST)
Datum & Tijd tt [°C] td [°C] ff [km/u] ff [kn] dd ppp [hPa] vv [km] rr [mm]
27.05.2020 05:00:00 - - - - - - - -
27.05.2020 04:00:00 20,2 12,9 9 5 ZO 1020,1 12 0,0
27.05.2020 03:00:00 19,5 12,7 5 3 ZZO 1020,5 9 0,0
27.05.2020 02:00:00 20,9 12,6 8 4 ZZO 1020,6 20 -
27.05.2020 01:00:00 21,3 12,4 9 5 ZZO 1020,5 20 0,0
27.05.2020 00:00:00 22,2 13,8 5 3 ZO 1020,4 20 0,0
26.05.2020 23:00:00 23,0 13,5 8 4 ZZO 1020,0 20 -
26.05.2020 22:00:00 24,4 13,9 5 3 ZO 1019,3 20 0,0
26.05.2020 21:00:00 27,2 13,9 9 5 ONO 1018,6 20 0,0
26.05.2020 20:00:00 28,2 13,3 16 9 NO 1018,4 20 -
26.05.2020 19:00:00 29,9 13,6 13 7 NO 1017,9 20 0,0
26.05.2020 18:00:00 29,8 14,0 9 5 ONO 1018,2 20 0,0
26.05.2020 17:00:00 30,2 15,1 8 4 ZO 1018,0 19 -
26.05.2020 16:00:00 30,5 15,0 9 5 OZO 1018,5 20 0,0
26.05.2020 15:00:00 29,4 14,4 11 6 ONO 1019,3 20 0,0
26.05.2020 14:00:00 29,1 14,9 9 5 O 1020,0 24 -
26.05.2020 13:00:00 28,1 14,3 16 9 O 1020,6 20 0,0
26.05.2020 12:00:00 26,9 14,3 16 9 O 1020,9 20 0,0
26.05.2020 11:00:00 24,5 14,3 15 8 ONO 1021,6 20 -
26.05.2020 10:00:00 22,6 14,4 13 7 O 1021,7 20 0,0
26.05.2020 09:00:00 21,2 14,4 5 3 O 1022,0 20 0,0
26.05.2020 08:00:00 18,8 14,1 4 2 OZO 1022,0 18 -
26.05.2020 07:00:00 - - - - - - - -
26.05.2020 06:00:00 - - - - - - - -
26.05.2020 05:00:00 - - - - - - - -
26.05.2020 04:00:00 - - - - - - - -
26.05.2020 03:00:00 - - - - - - - -
26.05.2020 02:00:00 - - - - - - - -
26.05.2020 01:00:00 - - - - - - - -
26.05.2020 00:00:00 - - - - - - - -
25.05.2020 23:00:00 - - - - - - - -
25.05.2020 22:00:00 - - - - - - - -
25.05.2020 21:00:00 - - - - - - - -
25.05.2020 20:00:00 - - - - - - - -
25.05.2020 19:00:00 - - - - - - - -
25.05.2020 18:00:00 - - - - - - - -
25.05.2020 17:00:00 - - - - - - - -
25.05.2020 16:00:00 - - - - - - - -
25.05.2020 15:00:00 - - - - - - - -
25.05.2020 14:00:00 31,0 13,3 4 2 ONO 1019,2 20 -
25.05.2020 13:00:00 - - - - - - - -
25.05.2020 12:00:00 - - - - - - - -
25.05.2020 11:00:00 26,7 17,7 4 2 O 1020,5 18 -
25.05.2020 10:00:00 - - - - - - - -
25.05.2020 09:00:00 23,2 17,2 4 2 NNO 1021,1 20 0,0
25.05.2020 08:00:00 18,9 15,8 0 0 N 1021,5 25 -
25.05.2020 07:00:00 - - - - - - - -
25.05.2020 06:00:00 - - - - - - - -
25.05.2020 05:00:00 - - - - - - - -
25.05.2020 04:00:00 - - - - - - - -
25.05.2020 03:00:00 - - - - - - - -
25.05.2020 02:00:00 - - - - - - - -
25.05.2020 01:00:00 - - - - - - - -
25.05.2020 00:00:00 - - - - - - - -
24.05.2020 23:00:00 - - - - - - - -
24.05.2020 22:00:00 - - - - - - - -
24.05.2020 21:00:00 29,4 18,5 4 2 ZW 1019,0 8 0,0
24.05.2020 20:00:00 31,5 14,6 8 4 NW 1018,5 - -
24.05.2020 19:00:00 32,5 13,7 8 4 NW 1018,6 3,4 0,0
24.05.2020 18:00:00 32,8 15,3 9 5 NW 1018,9 10 0,0
24.05.2020 17:00:00 32,1 14,7 11 6 ZW 1019,4 1,2 -
24.05.2020 16:00:00 32,1 14,3 9 5 WZW 1019,8 2,0 0,0
24.05.2020 15:00:00 32,0 13,7 8 4 WZW 1020,3 4,7 0,0
24.05.2020 14:00:00 30,9 14,5 8 4 Z 1020,6 20 -
24.05.2020 13:00:00 29,5 15,6 5 3 O 1021,0 20 0,0
24.05.2020 12:00:00 27,5 16,1 8 4 O 1021,5 20 0,0
24.05.2020 11:00:00 24,8 16,2 5 3 O 1022,3 30 -
24.05.2020 10:00:00 22,8 16,1 8 4 O 1022,6 20 0,0
24.05.2020 09:00:00 20,7 15,5 0 0 N 1022,6 16 0,0
24.05.2020 08:00:00 18,0 15,3 2 1 N 1022,6 29 -
24.05.2020 07:00:00 16,5 14,5 4 2 ZZW 1022,5 0,6 0,0
24.05.2020 06:00:00 17,3 14,0 4 2 WZW 1022,2 2,0 0,0
24.05.2020 05:00:00 18,3 14,4 8 4 ZZW 1022,0 0,2 -
24.05.2020 04:00:00 19,1 14,4 5 3 ZW 1022,1 0,3 0,0
24.05.2020 03:00:00 20,5 14,2 5 3 WZW 1022,3 0,3 0,0
24.05.2020 02:00:00 21,5 13,7 8 4 WZW 1022,5 0,9 -
24.05.2020 01:00:00 23,1 14,1 5 3 W 1022,5 1,0 0,0
24.05.2020 00:00:00 22,6 14,2 8 4 WZW 1022,6 1,4 0,0
23.05.2020 23:00:00 24,3 13,8 8 4 W 1022,1 0,8 -
23.05.2020 22:00:00 25,4 13,3 8 4 W 1021,6 0,7 0,0
23.05.2020 21:00:00 28,7 14,5 9 5 WNW 1020,9 2,5 0,0
23.05.2020 20:00:00 30,3 14,0 9 5 WNW 1020,7 10 -
23.05.2020 19:00:00 30,8 14,0 9 5 WNW 1020,9 20 0,0
23.05.2020 18:00:00 31,2 14,8 8 4 NW 1021,0 20 0,0
23.05.2020 17:00:00 30,8 14,4 11 6 WNW 1021,5 4,8 -
23.05.2020 16:00:00 30,3 13,6 8 4 WNW 1021,9 3,0 0,0
23.05.2020 15:00:00 29,9 13,2 11 6 NW 1022,5 4,8 0,0
23.05.2020 14:00:00 29,1 12,1 8 4 W 1023,1 35 -
23.05.2020 13:00:00 28,0 14,6 8 4 WNW 1023,6 19 0,0
23.05.2020 12:00:00 26,6 15,6 9 5 NW 1024,0 19 0,0
23.05.2020 11:00:00 24,6 14,1 4 2 NW 1024,3 28 -
23.05.2020 10:00:00 22,6 14,7 5 3 NNW 1024,4 20 0,0
23.05.2020 09:00:00 21,3 14,7 5 3 NW 1024,0 19 0,0
23.05.2020 08:00:00 18,3 14,4 4 2 ZW 1024,2 25 -
23.05.2020 07:00:00 17,0 13,7 5 3 WZW 1024,0 4,9 0,0
23.05.2020 06:00:00 17,8 14,3 5 3 ZW 1023,7 4,7 0,0
23.05.2020 05:00:00 18,5 14,6 5 3 W 1023,4 4,8 -
23.05.2020 04:00:00 20,2 15,0 8 4 WNW 1023,3 3,9 0,0
23.05.2020 03:00:00 21,0 15,1 9 5 W 1023,1 12 0,0
23.05.2020 02:00:00 21,5 15,6 5 3 W 1023,4 17 -
23.05.2020 01:00:00 22,1 15,4 5 3 WNW 1023,2 19 0,0
23.05.2020 00:00:00 22,2 13,5 2 1 W 1022,9 20 0,0
22.05.2020 23:00:00 22,9 8,2 8 4 WZW 1022,2 20 -
22.05.2020 22:00:00 23,3 12,0 5 3 ZW 1021,5 15 0,0
22.05.2020 21:00:00 28,1 12,8 5 3 W 1020,6 18 0,0
22.05.2020 20:00:00 29,6 12,1 9 5 NW 1020,0 20 -
22.05.2020 19:00:00 30,3 11,8 9 5 W 1019,9 13 0,0
22.05.2020 18:00:00 30,6 14,2 8 4 WZW 1020,0 10 0,0
22.05.2020 17:00:00 30,5 14,2 11 6 ZW 1020,4 2,8 -
22.05.2020 16:00:00 30,2 14,3 5 3 WNW 1020,7 20 0,0
22.05.2020 15:00:00 29,5 14,1 8 4 WNW 1021,5 19 0,0
22.05.2020 14:00:00 28,8 15,0 11 6 ZZW 1021,8 20 -
22.05.2020 13:00:00 27,9 13,8 5 3 W 1022,0 20 0,0
22.05.2020 12:00:00 25,3 16,7 8 4 N 1022,5 20 0,0
22.05.2020 11:00:00 23,7 16,0 4 2 NW 1022,5 20 -
22.05.2020 10:00:00 21,4 15,2 5 3 O 1022,7 19 0,0
22.05.2020 09:00:00 18,4 14,3 0 0 N 1022,7 15 0,0
22.05.2020 08:00:00 15,0 13,2 0 0 N 1022,9 18 -
22.05.2020 07:00:00 13,9 12,5 4 2 ZZW 1022,5 4,2 0,0
22.05.2020 06:00:00 14,2 12,1 4 2 Z 1022,3 4,3 0,0
22.05.2020 05:00:00 14,9 12,0 4 2 Z 1022,0 - -
22.05.2020 04:00:00 16,0 12,7 5 3 ZW 1021,8 - 0,0
22.05.2020 03:00:00 18,7 13,1 5 3 ZW 1021,6 7 0,0
22.05.2020 02:00:00 17,8 12,9 8 4 ZW 1021,9 7 -
22.05.2020 01:00:00 18,0 12,7 5 3 ZW 1022,1 8 0,0
22.05.2020 00:00:00 20,0 12,5 5 3 W 1021,6 10 0,0
21.05.2020 23:00:00 21,0 11,9 5 3 W 1021,2 10 -
21.05.2020 22:00:00 23,5 10,2 4 2 ONO 1020,1 20 0,0
21.05.2020 21:00:00 26,2 9,5 11 6 WNW 1019,2 2,2 0,0
21.05.2020 20:00:00 28,5 9,2 11 6 WNW 1018,1 2,9 -
21.05.2020 19:00:00 29,4 9,0 11 6 WNW 1017,8 2,3 0,0
21.05.2020 18:00:00 29,8 9,8 13 7 ZW 1017,8 20 0,0
21.05.2020 17:00:00 29,9 12,8 8 4 WZW 1017,9 9 -
21.05.2020 16:00:00 29,7 11,7 9 5 ZZW 1018,0 0,6 0,0
21.05.2020 15:00:00 29,5 12,4 8 4 W 1018,4 20 0,0
21.05.2020 14:00:00 28,8 11,8 8 4 WNW 1018,7 15 -
21.05.2020 13:00:00 28,1 8,9 9 5 ZW 1018,8 18 0,0
21.05.2020 12:00:00 26,7 10,4 8 4 WNW 1018,8 0,2 0,0
21.05.2020 11:00:00 24,2 15,1 4 2 NNO 1018,9 15 -
21.05.2020 10:00:00 22,1 15,2 2 1 ONO 1018,9 20 0,0
21.05.2020 09:00:00 19,9 14,9 2 1 N 1019,1 19 0,0
21.05.2020 08:00:00 16,5 13,8 0 0 N 1019,3 12 -
21.05.2020 07:00:00 15,6 12,9 4 2 ZW 1018,8 6 0,0
21.05.2020 06:00:00 15,8 13,1 2 1 ZZW 1018,5 6 0,0
21.05.2020 05:00:00 16,3 13,0 5 3 ZZO 1018,3 6 -

tt = temperatuur
td = dauwpunt
ff = windsnelheid
dd = windrichting
ppp = luchtdruk
vv = zicht
rr = neerslag

Weerstations in de omgeving